• In Hungary
  • List of Countries
  • For 7 days
  • Water Temperature
  • Satellite Maps
  • Weather Map
  • News
  • Weather Widgets
  • user-avatar
    Login

    Hourly Weather Karachi

    Today, 13 November, Tuesday

    Time Temperature Precipitation Wind Pressure Humidity
    00:00 +28°C° 0 mm 3 mps 756 mmHg 76%
    01:00 +28°C° 0 mm 3 mps 755 mmHg 77%
    02:00 +27°C° 0 mm 2 mps 755 mmHg 78%
    03:00 +27°C° 0 mm 2 mps 755 mmHg 79%
    04:00 +27°C° 0 mm 2 mps 755 mmHg 80%
    05:00 +27°C° 0 mm 1 mps 755 mmHg 79%
    06:00 +27°C° 0 mm 1 mps 755 mmHg 77%
    07:00 +28°C° 0 mm 1 mps 755 mmHg 76%
    08:00 +29°C° 0 mm 1 mps 755 mmHg 67%
    09:00 +30°C° 0 mm 1 mps 756 mmHg 59%
    10:00 +32°C° 0 mm 2 mps 756 mmHg 50%
    11:00 +32°C° 0 mm 2 mps 755 mmHg 47%
    12:00 +34°C° 0 mm 3 mps 754 mmHg 45%
    13:00 +35°C° 0 mm 4 mps 754 mmHg 42%
    14:00 +34°C° 0 mm 4 mps 754 mmHg 46%
    15:00 +33°C° 0 mm 4 mps 753 mmHg 49%
    16:00 +33°C° 0 mm 4 mps 753 mmHg 53%
    17:00 +32°C° 0 mm 4 mps 753 mmHg 57%
    18:00 +30°C° 0 mm 4 mps 754 mmHg 62%
    19:00 +30°C° 0 mm 3 mps 754 mmHg 66%
    20:00 +29°C° 0 mm 3 mps 754 mmHg 68%
    21:00 +29°C° 0 mm 2 mps 754 mmHg 70%
    22:00 +28°C° 0 mm 2 mps 754 mmHg 72%
    23:00 +28°C° 0 mm 2 mps 754 mmHg 73%

    Tomorrow, 14 November, Wednesday

    Time Temperature Precipitation Wind Pressure Humidity
    00:00 +28°C° 0 mm 2 mps 754 mmHg 75%
    01:00 +28°C° 0 mm 2 mps 754 mmHg 76%
    02:00 +27°C° 0 mm 2 mps 754 mmHg 76%
    03:00 +27°C° 0 mm 1 mps 754 mmHg 76%
    04:00 +27°C° 0 mm 1 mps 754 mmHg 76%
    05:00 +27°C° 0 mm 1 mps 755 mmHg 69%
    06:00 +28°C° 0 mm 2 mps 755 mmHg 62%
    07:00 +28°C° 0 mm 2 mps 756 mmHg 55%
    08:00 +30°C° 0 mm 2 mps 756 mmHg 43%
    09:00 +32°C° 0 mm 2 mps 756 mmHg 31%
    10:00 +35°C° 0 mm 3 mps 756 mmHg 19%
    11:00 +36°C° 0 mm 3 mps 756 mmHg 19%
    12:00 +36°C° 0 mm 2 mps 755 mmHg 18%
    13:00 +37°C° 0 mm 2 mps 755 mmHg 17%
    14:00 +36°C° 0 mm 3 mps 755 mmHg 19%
    15:00 +36°C° 0 mm 3 mps 755 mmHg 21%
    16:00 +36°C° 0 mm 4 mps 755 mmHg 24%
    17:00 +34°C° 0 mm 3 mps 755 mmHg 27%
    18:00 +33°C° 0 mm 3 mps 755 mmHg 30%
    19:00 +31°C° 0 mm 2 mps 756 mmHg 33%
    20:00 +30°C° 0 mm 2 mps 756 mmHg 33%
    21:00 +30°C° 0 mm 2 mps 757 mmHg 33%
    22:00 +29°C° 0 mm 1 mps 757 mmHg 33%
    23:00 +29°C° 0 mm 1 mps 757 mmHg 31%

    Day after tomorrow, 15 November, Thursday

    Time Temperature Precipitation Wind Pressure Humidity
    00:00 +29°C° 0 mm 2 mps 757 mmHg 29%
    01:00 +29°C° 0 mm 2 mps 757 mmHg 27%
    02:00 +28°C° 0 mm 2 mps 757 mmHg 25%
    03:00 +28°C° 0 mm 3 mps 757 mmHg 23%
    04:00 +28°C° 0 mm 3 mps 757 mmHg 21%
    05:00 +28°C° 0 mm 4 mps 758 mmHg 20%
    06:00 +28°C° 0 mm 4 mps 758 mmHg 19%
    07:00 +29°C° 0 mm 5 mps 759 mmHg 19%
    08:00 +30°C° 0 mm 5 mps 759 mmHg 17%
    09:00 +33°C° 0 mm 6 mps 759 mmHg 15%
    10:00 +35°C° 0 mm 6 mps 760 mmHg 13%
    11:00 +36°C° 0 mm 5 mps 759 mmHg 13%
    12:00 +36°C° 0 mm 5 mps 759 mmHg 13%
    13:00 +37°C° 0 mm 4 mps 758 mmHg 12%
    14:00 +37°C° 0 mm 4 mps 758 mmHg 13%
    15:00 +36°C° 0 mm 4 mps 758 mmHg 13%
    16:00 +36°C° 0 mm 4 mps 757 mmHg 13%
    17:00 +35°C° 0 mm 4 mps 758 mmHg 13%
    18:00 +34°C° 0 mm 4 mps 758 mmHg 14%
    19:00 +32°C° 0 mm 4 mps 759 mmHg 14%
    20:00 +32°C° 0 mm 4 mps 759 mmHg 14%
    21:00 +30°C° 0 mm 3 mps 759 mmHg 15%
    22:00 +30°C° 0 mm 3 mps 759 mmHg 15%
    23:00 +29°C° 0 mm 3 mps 759 mmHg 16%

    16 November, Friday

    Time Temperature Precipitation Wind Pressure Humidity
    00:00 +29°C° 0 mm 3 mps 759 mmHg 16%
    01:00 +29°C° 0 mm 3 mps 758 mmHg 17%
    02:00 +28°C° 0 mm 3 mps 758 mmHg 18%
    03:00 +28°C° 0 mm 2 mps 758 mmHg 18%
    04:00 +27°C° 0 mm 2 mps 758 mmHg 19%
    05:00 +27°C° 0 mm 2 mps 759 mmHg 19%
    06:00 +28°C° 0 mm 2 mps 759 mmHg 19%
    07:00 +28°C° 0 mm 2 mps 760 mmHg 18%
    08:00 +30°C° 0 mm 2 mps 760 mmHg 17%
    09:00 +31°C° 0 mm 2 mps 760 mmHg 15%
    10:00 +34°C° 0 mm 2 mps 760 mmHg 14%
    11:00 +35°C° 0 mm 2 mps 759 mmHg 14%
    12:00 +36°C° 0 mm 2 mps 758 mmHg 13%
    13:00 +36°C° 0 mm 2 mps 758 mmHg 13%
    14:00 +36°C° 0 mm 3 mps 757 mmHg 14%
    15:00 +36°C° 0 mm 3 mps 757 mmHg 15%
    16:00 +35°C° 0 mm 4 mps 757 mmHg 16%
    17:00 +34°C° 0 mm 4 mps 757 mmHg 19%
    18:00 +33°C° 0 mm 3 mps 758 mmHg 22%
    19:00 +31°C° 0 mm 3 mps 758 mmHg 26%
    20:00 +30°C° 0 mm 3 mps 758 mmHg 28%
    21:00 +30°C° 0 mm 3 mps 758 mmHg 31%
    22:00 +29°C° 0 mm 3 mps 758 mmHg 34%
    23:00 +29°C° 0 mm 4 mps 758 mmHg 38%

    17 November, Saturday

    Time Temperature Precipitation Wind Pressure Humidity
    00:00 +28°C° 0 mm 4 mps 757 mmHg 42%
    01:00 +28°C° 0 mm 4 mps 757 mmHg 46%
    02:00 +28°C° 0 mm 4 mps 757 mmHg 48%
    03:00 +28°C° 0 mm 4 mps 757 mmHg 50%
    04:00 +27°C° 0 mm 4 mps 756 mmHg 52%
    05:00 +28°C° 0 mm 3 mps 757 mmHg 52%
    06:00 +28°C° 0 mm 3 mps 757 mmHg 51%
    07:00 +28°C° 0 mm 3 mps 758 mmHg 51%
    08:00 +30°C° 0 mm 4 mps 758 mmHg 43%
    09:00 +33°C° 0 mm 4 mps 758 mmHg 36%
    10:00 +34°C° 0 mm 4 mps 758 mmHg 28%
    11:00 +35°C° 0 mm 4 mps 757 mmHg 26%
    12:00 +36°C° 0 mm 5 mps 756 mmHg 23%
    13:00 +37°C° 0 mm 5 mps 755 mmHg 21%
    14:00 +36°C° 0 mm 5 mps 755 mmHg 22%
    15:00 +35°C° 0 mm 5 mps 755 mmHg 24%
    16:00 +34°C° 0 mm 5 mps 754 mmHg 26%
    17:00 +33°C° 0 mm 5 mps 755 mmHg 31%
    18:00 +32°C° 0 mm 4 mps 755 mmHg 35%
    19:00 +30°C° 0 mm 4 mps 756 mmHg 40%
    20:00 +29°C° 0 mm 4 mps 756 mmHg 45%
    21:00 +29°C° 0 mm 4 mps 756 mmHg 50%
    22:00 +29°C° 0 mm 4 mps 756 mmHg 55%
    23:00 +28°C° 0 mm 5 mps 755 mmHg 59%

    18 November, Sunday

    Time Temperature Precipitation Wind Pressure Humidity
    00:00 +28°C° 0 mm 5 mps 755 mmHg 64%
    01:00 +28°C° 0 mm 5 mps 755 mmHg 68%
    02:00 +27°C° 0 mm 5 mps 755 mmHg 70%
    03:00 +27°C° 0 mm 5 mps 755 mmHg 72%
    04:00 +27°C° 0 mm 4 mps 755 mmHg 74%
    05:00 +27°C° 0 mm 4 mps 755 mmHg 73%
    06:00 +28°C° 0 mm 4 mps 756 mmHg 71%
    07:00 +28°C° 0 mm 4 mps 756 mmHg 69%
    08:00 +30°C° 0 mm 4 mps 756 mmHg 59%
    09:00 +32°C° 0 mm 4 mps 756 mmHg 48%
    10:00 +34°C° 0 mm 4 mps 757 mmHg 38%
    11:00 +35°C° 0 mm 4 mps 756 mmHg 35%
    12:00 +35°C° 0 mm 5 mps 755 mmHg 32%
    13:00 +36°C° 0 mm 5 mps 755 mmHg 29%
    14:00 +35°C° 0 mm 5 mps 755 mmHg 34%
    15:00 +34°C° 0 mm 5 mps 755 mmHg 38%
    16:00 +33°C° 0 mm 5 mps 755 mmHg 42%
    17:00 +32°C° 0 mm 4 mps 755 mmHg 49%
    18:00 +30°C° 0 mm 4 mps 756 mmHg 56%
    19:00 +29°C° 0 mm 4 mps 756 mmHg 62%
    20:00 +29°C° 0 mm 3 mps 756 mmHg 65%
    21:00 +29°C° 0 mm 3 mps 756 mmHg 68%
    22:00 +28°C° 0 mm 3 mps 756 mmHg 71%
    23:00 +28°C° 0 mm 3 mps 756 mmHg 72%
    Show more